Starlink 36099

operational
NORAD ID: 66797 Int'l Des: 2025-278 Owner: SPXS Country: US Constellation: starlink
LEOCIRCULAR

Starlink 36099について

説明を読み込み中...

リアルタイム位置

3D地球を読み込み中...

次回通過

高度履歴

Altitude vs Time

uPlot chart will show altitude changes over time

軌道要素

1 66797U 25278G 25347.11065824 .00224629 00000-0 83695-3 0 9996
2 66797 42.9983 249.8093 0003829 302.0122 58.0379 15.86593561 1898
Epoch: Dec 13, 2025 • Age: 23 hours

現在のステータス

高度 308.6 km
速度 7.73 km/s
衛星直下点 6.71°N, 147.86°E
打ち上げ日 Dec 1, 2025
運用期間 12 days
タイプ internet

技術仕様

分類 Payload
質量 575.00 kg
乾燥質量 530.00 kg
総質量 575.00 kg
長さ 0.30 m
直径 4.10 m
スパン 29.00 m
形状 Box + pan
製造者 SPXS
バスタイプ Starlink V2MO
フェーズステータス In Orbit
所有者/国 SPXS/US

大規模コンステレーション

Loading constellations...